(330731) = 2008 RV112

Discovered at Kitt Peak on 2008-09-05 by Spacewatch.

Orbit

Orbit type: Main Belt

Note: WebGL enabled browser required.

epoch2023-09-13.0
epoch JD2460200.5
perihelion date2023-12-29.86010
perihelion JD2460308.36010
argument of perihelion (°)78.78840
ascending node (°)216.33742
inclination (°)8.70256
eccentricity0.0436578
perihelion distance (AU)2.9523328
Tisserand w.r.t. Jupiter3.2
ΔV w.r.t. Earth (km/sec)11.0
semimajor axis (AU)3.0871093
mean anomaly (°)340.40088
mean daily motion (°/day)0.18170870
aphelion distance (AU)3.222
period (years)5.42
P-vector [x]0.41791577
P-vector [y]-0.88135831
P-vector [z]-0.22034960
Q-vector [x]0.90405118
Q-vector [y]0.37952200
Q-vector [z]0.19660750
absolute magnitude16.32
phase slope0.15
uncertainty0
referenceMPEC 2023-N43
observations used195
oppositions11
arc length (days)7632
first opposition used2002
last opposition used2023
residual rms (arc-secs)0.76
perturbers coarse indicatorM-v
perturbers precise indicator003Ek
first observation date used2002-08-15.0
last observation date used2023-07-08.0
computer nameMPCLINUX
JD of orbit computation2456966.736871
perihelion JD uncertainty (days)7.7853E-04
argument of perihelion uncertainty (°)1.5527E-04
ascending node uncertainty (°)3.5682E-05
inclination uncertainty (°)8.2760E-06
eccentricity uncertainty 6.2108E-08
perihelion distance uncertainty (AU)2.0813E-07
Minimum Orbit Intersection Distances (in AU)
for orbit epoch: 2460000.5, reference: E2023-N43
Mercury2.51004
Venus2.24016
Earth1.95212
Mars1.46905
Jupiter1.8539
Saturn5.87885
Uranus15.302
Neptune26.7455

Observations

198 total observations over interval: 2002 08 15.33309 – 2023 07 08.377450
These data are available for download (format description).

Date (UT) J2000 RA J2000 Dec Magn Location Ref
2002 08 15.33309 21 03 41.59 -03 19 02.7 20.3 R 644 – Palomar Mountain/NEAT MPS 380080
2002 08 15.34367 21 03 41.06 -03 19 05.8 20.3 R 644 – Palomar Mountain/NEAT MPS 380080
2002 08 15.36160 21 03 40.29 -03 19 10.4   644 – Palomar Mountain/NEAT MPS 380080
2002 08 25.18271 20 56 57.11 -04 06 58.4 19.8 R 644 – Palomar Mountain/NEAT MPS 380080
2002 08 25.20361 20 56 56.31 -04 07 05.4 20.3 R 644 – Palomar Mountain/NEAT MPS 380080
2002 08 25.22458 20 56 55.46 -04 07 11.5 19.7 R 644 – Palomar Mountain/NEAT MPS 380080
2003 10 22.44436 02 59 53.90 +15 57 11.4 21.0 V 691 – Steward Observatory, Kitt Peak-Spacewatch MPS 270255
2003 10 22.47085 02 59 52.78 +15 57 02.5 21.1 V 691 – Steward Observatory, Kitt Peak-Spacewatch MPS 270255
2003 10 22.49755 02 59 51.63 +15 56 53.9 21.0 V 691 – Steward Observatory, Kitt Peak-Spacewatch MPS 270255
2003 11 20.16999 02 38 18.78 +13 11 45.7 20.8 V 691 – Steward Observatory, Kitt Peak-Spacewatch MPS 270255
2003 11 20.19869 02 38 17.55 +13 11 36.7 21.0 V 691 – Steward Observatory, Kitt Peak-Spacewatch MPS 270255
2003 11 20.22589 02 38 16.36 +13 11 27.7 21.2 V 691 – Steward Observatory, Kitt Peak-Spacewatch MPS 270255
2008 09 05.37509 00 44 00.72 +11 52 16.2 20.5 V 691 – Steward Observatory, Kitt Peak-Spacewatch MPS 263320
2008 09 05.39618 00 44 00.07 +11 52 11.0 20.4 V 691 – Steward Observatory, Kitt Peak-Spacewatch MPS 263320
2008 09 05.41381 00 43 59.49 +11 52 07.0 20.5 V 691 – Steward Observatory, Kitt Peak-Spacewatch MPS 263320
2008 09 23.18706 00 33 14.89 +10 19 21.7 21.3 V 691 – Steward Observatory, Kitt Peak-Spacewatch MPS 263320
2008 09 23.20467 00 33 14.16 +10 19 14.8 21.0 V 691 – Steward Observatory, Kitt Peak-Spacewatch MPS 263320
2008 09 23.22231 00 33 13.36 +10 19 07.8 21.8 V 691 – Steward Observatory, Kitt Peak-Spacewatch MPS 263320
2008 10 09.11794 00 22 06.67 +08 29 16.8 20.2 V 691 – Steward Observatory, Kitt Peak-Spacewatch MPS 263320
2008 10 09.13556 00 22 05.96 +08 29 09.0 20.5 V 691 – Steward Observatory, Kitt Peak-Spacewatch MPS 263320
2008 10 09.15317 00 22 05.24 +08 29 01.2 20.3 V 691 – Steward Observatory, Kitt Peak-Spacewatch MPS 263320
2008 10 26.13841 00 12 15.44 +06 31 17.0 20.7 V G96 – Mt. Lemmon Survey MPS 263320
2008 10 26.14357 00 12 15.26 +06 31 14.8 21.2 V G96 – Mt. Lemmon Survey MPS 263320
2008 10 26.14870 00 12 15.15 +06 31 13.1 20.9 V G96 – Mt. Lemmon Survey MPS 263321
2008 10 26.15379 00 12 14.97 +06 31 10.9 21.1 V G96 – Mt. Lemmon Survey MPS 263321
2012 05 10.50694 16 06 06.273 -15 53 41.66 20.3 i F51 – Pan-STARRS 1, Haleakala MPS 424976
2012 05 10.51754 16 06 05.808 -15 53 38.31 20.1 i F51 – Pan-STARRS 1, Haleakala MPS 424976
2012 05 21.45016 15 57 42.811 -14 59 15.93 21.2 g F51 – Pan-STARRS 1, Haleakala MPS 424976
2012 05 21.46032 15 57 42.309 -14 59 13.14 21.3 g F51 – Pan-STARRS 1, Haleakala MPS 424976
2012 05 21.47143 15 57 41.769 -14 59 09.87 20.6 r F51 – Pan-STARRS 1, Haleakala MPS 424976
2012 05 21.48108 15 57 41.285 -14 59 06.96 20.4 r F51 – Pan-STARRS 1, Haleakala MPS 424976
2012 06 09.17194 15 43 52.23 -13 37 36.4 20.6 V 691 – Steward Observatory, Kitt Peak-Spacewatch MPS 427285
2012 06 09.23595 15 43 49.66 -13 37 22.5 20.9 V 691 – Steward Observatory, Kitt Peak-Spacewatch MPS 427285
2012 06 09.29698 15 43 47.13 -13 37 08.6 20.6 V 691 – Steward Observatory, Kitt Peak-Spacewatch MPS 427285
2013 08 17.42993 22 07 12.856 +01 10 18.70 20.4 i F51 – Pan-STARRS 1, Haleakala MPS 474335
2013 08 17.44139 22 07 12.342 +01 10 15.67 20.5 i F51 – Pan-STARRS 1, Haleakala MPS 474335
2013 08 17.50738 22 07 09.414 +01 09 57.68 20.5 r F51 – Pan-STARRS 1, Haleakala MPS 474335
2013 09 01.20860 21 56 41.86 -00 07 52.8 19.7 V 703 – Catalina Sky Survey MPS 493315
2013 09 01.21304 21 56 41.74 -00 07 58.1 19.8 V G96 – Mt. Lemmon Survey MPS 476106
2013 09 01.21530 21 56 41.59 -00 07 58.6 21.0 V 703 – Catalina Sky Survey MPS 493315
2013 09 01.22001 21 56 41.42 -00 08 00.4 20.0 V G96 – Mt. Lemmon Survey MPS 476106
2013 09 01.22200 21 56 41.41 -00 08 02.1 20.6 V 703 – Catalina Sky Survey MPS 493315
2013 09 01.22704 21 56 41.14 -00 08 02.5 19.7 V G96 – Mt. Lemmon Survey MPS 476106
2013 09 01.23400 21 56 40.86 -00 08 05.4 19.8 V G96 – Mt. Lemmon Survey MPS 476106
2014 10 18.37290 03 56 06.75 +17 32 20.9 20.6 V G96 – Mt. Lemmon Survey MPS 542090
2014 10 18.37833 03 56 06.55 +17 32 19.5 20.7 V G96 – Mt. Lemmon Survey MPS 542090
2014 10 18.38375 03 56 06.45 +17 32 18.5 20.5 V G96 – Mt. Lemmon Survey MPS 542090
2014 10 18.38917 03 56 06.28 +17 32 16.8 20.7 V G96 – Mt. Lemmon Survey MPS 542090
2014 11 17.28718 03 35 28.84 +15 08 00.8 20.0 V G96 – Mt. Lemmon Survey MPS 547488
2014 11 17.29277 03 35 28.56 +15 07 59.0 20.2 V G96 – Mt. Lemmon Survey MPS 547488
2014 11 17.29837 03 35 28.28 +15 07 57.3 19.8 V G96 – Mt. Lemmon Survey MPS 547488
2014 11 17.30398 03 35 28.00 +15 07 55.8 20.1 V G96 – Mt. Lemmon Survey MPS 547488
2014 11 18.27550 03 34 40.87 +15 03 01.9 20.2 r G45 – Space Surveillance Telescope, Atom Site MPS 558340
2014 11 18.27982 03 34 40.65 +15 03 01.4 19.4 r G45 – Space Surveillance Telescope, Atom Site MPS 558340
2014 11 18.28433 03 34 40.43 +15 03 00.2 20.1 r G45 – Space Surveillance Telescope, Atom Site MPS 558340
2014 11 18.28851 03 34 40.21 +15 02 58.7 20.3 r G45 – Space Surveillance Telescope, Atom Site MPS 558340
2014 11 18.29515 03 34 39.87 +15 02 56.4 19.9 r G45 – Space Surveillance Telescope, Atom Site MPS 558340
2014 11 18.32294 03 34 38.48 +15 02 48.2 20.5 V G96 – Mt. Lemmon Survey MPS 547488
2014 11 18.32855 03 34 38.20 +15 02 46.7 19.9 V G96 – Mt. Lemmon Survey MPS 547488
2014 11 18.33417 03 34 37.93 +15 02 44.6 19.8 V G96 – Mt. Lemmon Survey MPS 547488
2014 11 18.33978 03 34 37.73 +15 02 43.0 19.6 V G96 – Mt. Lemmon Survey MPS 547488
2014 11 20.47506 03 32 54.224 +14 52 05.67 20.3 w F51 – Pan-STARRS 1, Haleakala MPS 547488
2014 11 20.48635 03 32 53.663 +14 52 02.29 20.3 w F51 – Pan-STARRS 1, Haleakala MPS 547488
2014 11 20.49756 03 32 53.099 +14 51 58.91 20.3 w F51 – Pan-STARRS 1, Haleakala MPS 547488
2014 11 20.50877 03 32 52.546 +14 51 55.63 20.3 w F51 – Pan-STARRS 1, Haleakala MPS 547488
2014 11 26.30009 03 28 17.885 +14 24 00.15 20.5 w F51 – Pan-STARRS 1, Haleakala MPS 551398
2014 11 26.31132 03 28 17.340 +14 23 57.06 20.5 w F51 – Pan-STARRS 1, Haleakala MPS 551398
2014 11 26.32252 03 28 16.808 +14 23 53.93 20.5 w F51 – Pan-STARRS 1, Haleakala MPS 551398
2014 12 11.14537 03 18 05.42 +13 22 55.4 20.9 V G96 – Mt. Lemmon Survey MPS 552968
2014 12 11.15433 03 18 05.07 +13 22 53.7 20.9 V G96 – Mt. Lemmon Survey MPS 552968
2014 12 11.15945 03 18 04.90 +13 22 52.5 20.7 V G96 – Mt. Lemmon Survey MPS 552968
2014 12 11.16456 03 18 04.72 +13 22 51.4 21.0 V G96 – Mt. Lemmon Survey MPS 552968
2014 12 12.44181 03 17 20.995 +13 18 33.42 21.2 r F51 – Pan-STARRS 1, Haleakala MPS 552968
2014 12 12.45301 03 17 20.611 +13 18 31.04 21.1 r F51 – Pan-STARRS 1, Haleakala MPS 552968
2014 12 12.46427 03 17 20.220 +13 18 28.72 20.8 r F51 – Pan-STARRS 1, Haleakala MPS 552968
2015 12 06.51309 08 58 45.055 +06 09 05.52 21.6 r F51 – Pan-STARRS 1, Haleakala MPS 659492
2015 12 06.52422 08 58 45.018 +06 09 03.19 21.4 r F51 – Pan-STARRS 1, Haleakala MPS 659492
2015 12 06.53549 08 58 44.990 +06 09 01.14 21.5 r F51 – Pan-STARRS 1, Haleakala MPS 659492
2015 12 06.54676 08 58 44.992 +06 08 58.56 21.6 r F51 – Pan-STARRS 1, Haleakala MPS 659492
2015 12 09.55942 08 58 36.257 +05 59 27.03 21.8 w F51 – Pan-STARRS 1, Haleakala MPS 659492
2015 12 09.57231 08 58 36.183 +05 59 24.92 21.9 w F51 – Pan-STARRS 1, Haleakala MPS 659492
2015 12 09.58472 08 58 36.111 +05 59 22.48 21.9 w F51 – Pan-STARRS 1, Haleakala MPS 659492
2016 01 12.38280 08 44 22.651 +05 26 07.02 21.5 w F51 – Pan-STARRS 1, Haleakala MPS 671510
2016 01 12.39536 08 44 22.087 +05 26 08.00 21.6 w F51 – Pan-STARRS 1, Haleakala MPS 671510
2016 01 12.40790 08 44 21.539 +05 26 08.71 21.5 w F51 – Pan-STARRS 1, Haleakala MPS 671510
2016 01 12.42052 08 44 20.995 +05 26 09.74 21.8 w F51 – Pan-STARRS 1, Haleakala MPS 671510
2016 02 09.38869 08 22 40.949 +06 42 39.01 21.3 w F51 – Pan-STARRS 1, Haleakala MPS 682170
2016 02 09.39994 08 22 40.413 +06 42 41.62 21.4 w F51 – Pan-STARRS 1, Haleakala MPS 682170
